Date String (YYYY-MM-DD hh:mm:ss) UTC,Instrument flags,Ambient pressure (hPa),Sample flow (lpm),Bypass flow (lpm),Sample temperature (°C),Ambient temperature (°C),ASC tube jacket temperature (°C),LED temperature (°C),Box temperature (°C),Sample RH (%),Span deviation,Mass concentration (μg/m³),Mass concentration (μg/m³),Mass concentration (μg/m³)
DateTimeUTC,F1_M11,P_M11,Q1_M11,Q2_M11,T1_M11,T2_M11,T3_M11,T4_M11,T5_M11,U1_M11,ZSPAN_M11,X2_M11,X0_M11,X1_M11
2023-05-14 16:00:00,,0841.6,5.00,0.00,28.9,27.4,00.0,37.3,30.5,28.7,0000.0,0001.00,0001.70,0000.71
2023-05-14 16:01:00,,0841.6,5.00,0.00,28.9,27.4,00.0,37.3,30.5,29.2,0000.0,0001.01,0001.69,0000.72
2023-05-14 16:02:00,,0841.6,5.01,0.00,28.9,27.4,00.0,37.3,30.5,29.3,0000.0,0000.99,0001.66,0000.72
2023-05-14 16:03:00,,0841.6,5.01,0.00,28.9,27.4,00.0,37.3,30.5,28.0,0000.0,0000.96,0001.61,0000.69
2023-05-14 16:04:00,,0841.6,4.99,0.00,28.9,27.4,00.0,37.3,30.5,27.5,0000.0,0000.92,0001.52,0000.66
2023-05-14 16:05:00,,0841.6,5.00,0.00,28.9,27.4,00.0,37.3,30.6,28.4,0000.0,0000.89,0001.49,0000.64
2023-05-14 16:06:00,,0841.6,5.00,0.00,29.0,27.4,00.0,37.3,30.5,29.3,0000.0,0000.87,0001.48,0000.62
2023-05-14 16:07:00,,0841.6,5.01,0.00,28.9,27.4,00.0,37.3,30.6,28.6,0000.0,0000.85,0001.46,0000.60
2023-05-14 16:08:00,,0841.6,5.01,0.00,29.0,27.4,00.0,37.3,30.5,28.4,0000.0,0000.86,0001.49,0000.60
2023-05-14 16:09:00,,0841.6,5.00,0.00,29.0,27.4,00.0,37.3,30.6,27.7,0000.0,0000.89,0001.58,0000.60
2023-05-14 16:10:00,,0841.6,4.99,0.00,29.0,27.4,00.0,37.3,30.6,28.6,0000.0,0000.89,0001.57,0000.58
2023-05-14 16:11:00,,0841.6,5.00,0.00,29.0,27.4,00.0,37.3,30.6,29.3,0000.0,0000.85,0001.42,0000.56
2023-05-14 16:12:00,,0841.6,5.01,0.00,29.0,27.5,00.0,37.3,30.6,29.2,0000.0,0000.84,0001.38,0000.55
2023-05-14 16:13:00,,0841.6,5.00,0.00,29.0,27.5,00.0,37.3,30.5,28.7,0000.0,0000.83,0001.35,0000.56
2023-05-14 16:14:00,,0841.6,4.99,0.00,29.0,27.5,00.0,37.3,30.6,28.7,0000.0,0000.87,0001.41,0000.58
2023-05-14 16:15:00,,0841.6,4.99,0.00,29.0,27.5,00.0,37.3,30.6,28.8,0000.0,0000.90,0001.49,0000.60
2023-05-14 16:16:00,,0841.6,5.00,0.00,29.0,27.5,00.0,37.3,30.6,28.0,0000.0,0000.92,0001.53,0000.62
2023-05-14 16:17:00,,0841.6,5.01,0.00,29.0,27.5,00.0,37.3,30.6,27.8,0000.0,0000.95,0001.57,0000.64
2023-05-14 16:18:00,,0841.7,5.00,0.00,29.0,27.5,00.0,37.3,30.6,27.6,0000.0,0000.96,0001.54,0000.67
2023-05-14 16:19:00,,0841.7,5.01,0.00,29.0,27.5,00.0,37.3,30.6,27.7,0000.0,0000.96,0001.51,0000.70
2023-05-14 16:20:00,,0841.6,4.99,0.00,29.0,27.5,00.0,37.4,30.6,28.0,0000.0,0000.99,0001.54,0000.73
2023-05-14 16:21:00,,0841.7,4.99,0.00,29.0,27.5,00.0,37.4,30.6,28.8,0000.0,0001.04,0002.49,0000.78
2023-05-14 16:22:00,,0841.7,5.02,0.00,29.0,27.5,00.0,37.4,30.6,28.3,0000.0,0001.11,0002.63,0000.82
2023-05-14 16:23:00,,0841.7,4.99,0.00,29.0,27.5,00.0,37.4,30.6,27.9,0000.0,0001.16,0002.69,0000.86
2023-05-14 16:24:00,,0841.7,4.99,0.00,29.0,27.5,00.0,37.4,30.6,27.7,0000.0,0001.20,0002.71,0000.89
2023-05-14 16:25:00,,0841.7,5.00,0.00,29.0,27.5,00.0,37.4,30.7,27.5,0000.0,0001.18,0002.66,0000.90
2023-05-14 16:26:00,,0841.7,5.01,0.00,29.0,27.5,00.0,37.4,30.7,27.5,0000.0,0001.17,0002.57,0000.92
2023-05-14 16:27:00,,0841.7,5.00,0.00,29.0,27.5,00.0,37.4,30.6,27.8,0000.0,0001.18,0002.56,0000.94
2023-05-14 16:28:00,,0841.7,4.99,0.00,29.0,27.5,00.0,37.4,30.6,28.6,0000.0,0001.20,0002.59,0000.95
2023-05-14 16:29:00,,0841.7,4.99,0.00,29.0,27.5,00.0,37.4,30.6,29.2,0000.0,0001.22,0002.64,0000.96
2023-05-14 16:30:00,,0841.7,5.00,0.00,29.0,27.5,00.0,37.4,30.7,28.9,0000.0,0001.25,0003.28,0000.98
2023-05-14 16:31:00,,0841.7,5.00,0.00,29.1,27.6,00.0,37.4,30.7,28.3,0000.0,0001.26,0003.57,0000.99
2023-05-14 16:32:00,,0841.8,5.01,0.00,29.1,27.6,00.0,37.4,30.7,27.9,0000.0,0001.26,0002.78,0001.01
2023-05-14 16:33:00,,0841.7,5.01,0.00,29.1,27.6,00.0,37.4,30.7,27.8,0000.0,0001.24,0002.56,0001.02
2023-05-14 16:34:00,,0841.8,5.00,0.00,29.0,27.6,00.0,37.4,30.7,27.6,0000.0,0001.24,0002.55,0001.03
2023-05-14 16:35:00,,0841.8,5.00,0.00,29.1,27.6,00.0,37.4,30.7,27.9,0000.0,0001.27,0002.62,0001.05
2023-05-14 16:36:00,,0841.8,4.99,0.00,29.1,27.5,00.0,37.4,30.7,28.3,0000.0,0001.30,0002.69,0001.06
2023-05-14 16:37:00,,0841.8,4.99,0.00,29.1,27.6,00.0,37.4,30.7,28.3,0000.0,0001.31,0002.70,0001.06
2023-05-14 16:38:00,,0841.9,5.01,0.00,29.1,27.6,00.0,37.4,30.7,28.2,0000.0,0001.31,0002.72,0001.04
2023-05-14 16:39:00,,0841.8,5.01,0.00,29.1,27.6,00.0,37.4,30.7,27.9,0000.0,0001.28,0002.72,0001.02
2023-05-14 16:40:00,,0841.8,4.99,0.00,29.1,27.5,00.0,37.4,30.7,28.0,0000.0,0001.24,0002.72,0000.98
2023-05-14 16:41:00,,0841.8,5.01,0.00,29.1,27.5,00.0,37.4,30.7,27.3,0000.0,0001.20,0002.31,0000.94
2023-05-14 16:42:00,,0841.8,5.01,0.00,29.1,27.5,00.0,37.4,30.7,27.6,0000.0,0001.16,0001.73,0000.90
2023-05-14 16:43:00,,0841.8,4.99,0.00,29.1,27.5,00.0,37.4,30.7,27.6,0000.0,0001.13,0001.73,0000.85
2023-05-14 16:44:00,,0841.9,4.99,0.00,29.1,27.5,00.0,37.4,30.7,27.3,0000.0,0001.09,0001.68,0000.81
2023-05-14 16:45:00,,0841.9,4.99,0.00,29.1,27.5,00.0,37.4,30.7,27.3,0000.0,0001.07,0001.66,0000.78
2023-05-14 16:46:00,,0841.9,5.00,0.00,29.1,27.5,00.0,37.4,30.7,27.5,0000.0,0001.01,0001.58,0000.74
2023-05-14 16:47:00,,0841.9,5.00,0.00,29.1,27.5,00.0,37.4,30.7,27.6,0000.0,0000.97,0001.51,0000.72
2023-05-14 16:48:00,,0841.9,5.00,0.00,29.1,27.5,00.0,37.4,30.7,27.4,0000.0,0000.93,0001.45,0000.70
2023-05-14 16:49:00,,0841.9,5.01,0.00,29.0,27.4,00.0,37.4,30.7,27.3,0000.0,0000.92,0001.43,0000.69
2023-05-14 16:50:00,,0841.9,5.01,0.00,29.0,27.4,00.0,37.4,30.7,27.7,0000.0,0000.91,0001.38,0000.69
2023-05-14 16:51:00,,0841.9,4.99,0.00,29.0,27.4,00.0,37.4,30.6,27.6,0000.0,0000.90,0001.27,0000.70
2023-05-14 16:52:00,,0842.0,4.99,0.00,29.0,27.4,00.0,37.4,30.6,27.5,0000.0,0000.89,0001.32,0000.70
2023-05-14 16:53:00,,0841.9,5.00,0.00,29.0,27.5,00.0,37.4,30.6,27.4,0000.0,0000.88,0001.27,0000.72
2023-05-14 16:54:00,,0841.9,5.00,0.00,29.0,27.5,00.0,37.4,30.6,27.4,0000.0,0000.88,0001.30,0000.74
2023-05-14 16:55:00,,0842.0,5.01,0.00,29.0,27.5,00.0,37.4,30.7,27.4,0000.0,0000.91,0001.43,0000.75
2023-05-14 16:56:00,,0841.9,5.00,0.00,29.0,27.5,00.0,37.4,30.7,27.4,0000.0,0000.91,0001.49,0000.74
2023-05-14 16:57:00,,0841.9,5.01,0.00,29.0,27.5,00.0,37.4,30.7,27.4,0000.0,0000.94,0001.57,0000.74
2023-05-14 16:58:00,,0842.0,5.00,0.00,29.0,27.5,00.0,37.4,30.7,27.3,0000.0,0000.93,0001.56,0000.72
2023-05-14 16:59:00,,0842.0,4.99,0.00,29.0,27.5,00.0,37.4,30.7,26.9,0000.0,0000.91,0001.56,0000.70
